AFL3500 URSS-ULLI

Flight info

Callsign AFL3500
Flight time N/A
Altitude 35000
Route IRGID1D IRGID A944 GUBOR G487 ERSAR DCT BEMES DCT VULFI DCT TUVGI DCT EVZUN DCT ZIZAR DCT VAZLU DCT UZZID DCT NOKLI N72 WGD G481 OBABI T619 UMRAL P163 GOLRI L736 OLOPI N50 NUDKO T561 ODATI T875 GENPA GENPA1V
Aircraft A321/M-SDE3FGHIRWY/LB1

Departure

Time 2026-05-04 08:51
Airport Sochi International Airport (URSS)

Arrival

Time N/A
Airport Pulkovo Airport (ULLI)
Time Latitude Longitude Altitude Speed Heading
2026-05-04 08:04 43.44838 39.94441 72 ft 0 kts 335°
2026-05-04 08:40 43.44824 39.94450 65 ft 3 kts 335°
2026-05-04 08:40 43.44807 39.94461 64 ft 1 kts 335°
2026-05-04 08:41 43.44790 39.94472 69 ft 3 kts 331°
2026-05-04 08:41 43.44773 39.94486 72 ft 3 kts 327°
2026-05-04 08:41 43.44756 39.94501 64 ft 3 kts 328°
2026-05-04 08:41 43.44739 39.94513 65 ft 3 kts 356°
2026-05-04 08:42 43.44730 39.94513 67 ft 2 kts 65°
2026-05-04 08:42 43.44721 39.94488 64 ft 3 kts 65°
2026-05-04 08:42 43.44719 39.94482 64 ft 0 kts 65°
2026-05-04 08:46 43.44721 39.94487 64 ft 2 kts 65°
2026-05-04 08:47 43.44732 39.94520 69 ft 6 kts 65°
2026-05-04 08:47 43.44753 39.94583 70 ft 9 kts 65°
2026-05-04 08:47 43.44786 39.94679 67 ft 13 kts 64°
2026-05-04 08:47 43.44824 39.94790 69 ft 13 kts 65°
2026-05-04 08:48 43.44863 39.94904 71 ft 12 kts 65°
2026-05-04 08:48 43.44896 39.94998 83 ft 10 kts 65°
2026-05-04 08:48 43.44923 39.95079 85 ft 8 kts 65°
2026-05-04 08:48 43.44934 39.95144 82 ft 6 kts 102°
2026-05-04 08:49 43.44909 39.95180 83 ft 5 kts 151°
2026-05-04 08:50 43.44408 39.93926 64 ft 140 kts 245°
2026-05-04 08:50 43.43921 39.92498 181 ft 182 kts 246°
2026-05-04 08:51 43.43433 39.90897 986 ft 179 kts 252°
2026-05-04 08:51 43.43103 39.89256 1683 ft 178 kts 256°
2026-05-04 08:51 43.42830 39.87530 1856 ft 193 kts 258°
2026-05-04 08:51 43.42546 39.85661 1995 ft 206 kts 258°
2026-05-04 08:52 43.42237 39.83651 2120 ft 224 kts 257°
2026-05-04 08:52 43.41893 39.81473 2323 ft 240 kts 257°
2026-05-04 08:52 43.41518 39.79139 2606 ft 257 kts 257°
2026-05-04 08:52 43.41125 39.76716 3213 ft 263 kts 256°
2026-05-04 08:53 43.40720 39.74252 3864 ft 266 kts 255°
2026-05-04 08:54 43.44456 39.59424 6022 ft 286 kts 338°
2026-05-04 08:55 43.46306 39.58429 6101 ft 289 kts 338°
2026-05-04 08:55 43.48206 39.57395 6522 ft 297 kts 338°
2026-05-04 08:55 43.50146 39.56335 7064 ft 301 kts 338°
2026-05-04 08:55 43.52110 39.55257 7650 ft 305 kts 338°
2026-05-04 08:57 43.67165 39.53233 10464 ft 356 kts 25°
2026-05-04 09:01 43.79214 39.99972 16062 ft 400 kts 83°
2026-05-04 09:01 43.79693 40.03773 16433 ft 403 kts 83°
2026-05-04 09:01 43.80173 40.07609 16842 ft 405 kts 83°
2026-05-04 09:01 43.80659 40.11455 17244 ft 407 kts 83°
2026-05-04 09:02 43.81150 40.15322 17644 ft 409 kts 83°
2026-05-04 09:02 43.81639 40.19173 18032 ft 412 kts 83°
2026-05-04 09:02 43.82136 40.23086 18383 ft 414 kts 83°
2026-05-04 09:02 43.82636 40.27019 18732 ft 416 kts 83°
2026-05-04 09:03 43.83139 40.30983 19074 ft 418 kts 83°
2026-05-04 09:03 43.83642 40.34958 19415 ft 420 kts 82°
2026-05-04 09:03 43.84144 40.38957 19722 ft 421 kts 84°
2026-05-04 09:03 43.84643 40.42965 20044 ft 424 kts 82°
2026-05-04 09:04 43.85147 40.46996 20392 ft 426 kts 82°
2026-05-04 09:04 43.85655 40.51039 20730 ft 427 kts 83°
2026-05-04 09:04 43.86167 40.55100 21057 ft 429 kts 82°
2026-05-04 09:04 43.86677 40.59185 21357 ft 431 kts 82°
2026-05-04 09:05 43.87183 40.63292 21674 ft 432 kts 83°
2026-05-04 09:05 43.87683 40.67352 21946 ft 434 kts 83°
2026-05-04 09:05 43.88372 40.71496 22248 ft 438 kts 74°
2026-05-04 09:05 43.89481 40.75397 22562 ft 442 kts 68°
2026-05-04 09:06 43.90708 40.79312 22860 ft 444 kts 69°
2026-05-04 09:07 43.99373 41.07257 24654 ft 456 kts 69°
2026-05-04 09:08 44.00200 41.09942 24810 ft 457 kts 69°
2026-05-04 09:08 44.01453 41.14004 25046 ft 458 kts 69°
2026-05-04 09:08 44.02707 41.18078 25307 ft 459 kts 69°
2026-05-04 09:08 44.03961 41.22166 25551 ft 460 kts 69°
2026-05-04 09:09 44.05217 41.26270 25781 ft 461 kts 69°
2026-05-04 09:09 44.06473 41.30379 26013 ft 462 kts 69°
2026-05-04 09:09 44.07727 41.34493 26354 ft 461 kts 69°
2026-05-04 09:09 44.08975 41.38593 26696 ft 459 kts 69°
2026-05-04 09:10 44.10198 41.42632 27018 ft 458 kts 71°
2026-05-04 09:10 44.11145 41.46828 27322 ft 453 kts 80°
2026-05-04 09:10 44.11609 41.51148 27639 ft 449 kts 89°
2026-05-04 09:10 44.11609 41.55478 27935 ft 446 kts 94°
2026-05-04 09:11 44.11485 41.59789 28249 ft 445 kts 94°
2026-05-04 09:11 44.11371 41.64089 28556 ft 444 kts 94°
2026-05-04 09:11 44.11262 41.68384 28878 ft 443 kts 94°
2026-05-04 09:11 44.11154 41.72662 29183 ft 442 kts 94°
2026-05-04 09:12 44.11043 41.76932 29424 ft 442 kts 94°
2026-05-04 09:12 44.10927 41.81199 29659 ft 442 kts 94°
2026-05-04 09:14 44.10062 42.10904 31280 ft 437 kts 95°
2026-05-04 09:14 44.09934 42.15129 31506 ft 437 kts 95°
2026-05-04 09:14 44.09803 42.19347 31703 ft 437 kts 95°
2026-05-04 09:14 44.09670 42.23566 31867 ft 437 kts 95°
2026-05-04 09:15 44.09535 42.27809 31997 ft 439 kts 95°
2026-05-04 09:15 44.09399 42.32056 32159 ft 440 kts 96°
2026-05-04 09:15 44.09262 42.36301 32348 ft 440 kts 96°
2026-05-04 09:15 44.09121 42.40544 32571 ft 439 kts 96°
2026-05-04 09:17 44.07960 42.74318 34130 ft 435 kts 96°
2026-05-04 09:18 44.07805 42.78519 34249 ft 435 kts 96°
2026-05-04 09:18 44.07649 42.82738 34370 ft 436 kts 96°
2026-05-04 09:18 44.07495 42.86947 34495 ft 436 kts 96°
2026-05-04 09:18 44.07339 42.91168 34612 ft 437 kts 96°
2026-05-04 09:19 44.07182 42.95388 34739 ft 437 kts 96°
2026-05-04 09:19 44.07023 42.99599 34896 ft 436 kts 96°
2026-05-04 09:19 44.06693 43.08070 34943 ft 440 kts 96°
2026-05-04 09:20 44.06359 43.16527 34920 ft 441 kts 97°
2026-05-04 09:20 44.06012 43.25101 34932 ft 443 kts 97°
2026-05-04 09:21 44.05671 43.33612 34934 ft 443 kts 97°
2026-05-04 09:21 44.05319 43.42180 34927 ft 443 kts 97°
2026-05-04 09:22 44.04951 43.50752 34933 ft 443 kts 97°
2026-05-04 09:22 44.04579 43.59273 34923 ft 443 kts 97°
2026-05-04 09:23 44.04208 43.67793 34910 ft 443 kts 97°
2026-05-04 09:23 44.03830 43.76343 34907 ft 444 kts 97°
2026-05-04 09:25 44.02234 44.10670 34912 ft 446 kts 97°
2026-05-04 09:26 44.01820 44.19297 34911 ft 447 kts 97°
2026-05-04 09:26 44.01398 44.27895 34916 ft 448 kts 98°
2026-05-04 09:27 44.00959 44.36564 34919 ft 448 kts 98°
2026-05-04 09:27 44.00519 44.45171 34921 ft 448 kts 98°
2026-05-04 09:28 44.00081 44.53794 34921 ft 449 kts 98°
2026-05-04 09:28 43.99634 44.62467 34924 ft 449 kts 98°
2026-05-04 09:29 43.99180 44.71060 34928 ft 449 kts 98°
2026-05-04 09:29 43.98717 44.79744 34928 ft 449 kts 98°
2026-05-04 09:30 43.98249 44.88359 34928 ft 449 kts 98°
2026-05-04 09:30 43.97767 44.97018 34910 ft 449 kts 98°
2026-05-04 09:31 43.97277 45.05680 34904 ft 450 kts 98°
2026-05-04 09:31 43.96791 45.14320 34906 ft 451 kts 98°
2026-05-04 09:32 43.96301 45.23014 34907 ft 452 kts 98°
2026-05-04 09:34 43.94232 45.57756 34884 ft 453 kts 98°
2026-05-04 09:34 43.93693 45.66505 34892 ft 453 kts 99°
2026-05-04 09:35 43.93150 45.75207 34895 ft 454 kts 99°
2026-05-04 09:35 43.92600 45.83919 34902 ft 454 kts 99°
2026-05-04 09:37 43.94079 46.14686 34884 ft 460 kts 88°
2026-05-04 09:37 43.94396 46.19151 34888 ft 461 kts 88°
2026-05-04 09:38 43.95028 46.27968 34896 ft 461 kts 88°
2026-05-04 09:38 43.95654 46.36818 34896 ft 461 kts 88°
2026-05-04 09:39 43.96276 46.45679 34898 ft 461 kts 88°
2026-05-04 09:39 43.96890 46.54528 34886 ft 461 kts 88°
2026-05-04 09:40 43.97495 46.63380 34881 ft 460 kts 88°
2026-05-04 09:40 43.98085 46.72225 34884 ft 461 kts 89°
2026-05-04 09:42 44.00404 47.07730 34892 ft 462 kts 89°
2026-05-04 09:43 44.00961 47.16603 34906 ft 462 kts 89°
2026-05-04 09:43 44.01517 47.25490 34890 ft 461 kts 89°
2026-05-04 09:44 44.02069 47.34387 34899 ft 462 kts 89°
2026-05-04 09:46 44.04198 47.69905 34925 ft 460 kts 89°
2026-05-04 09:46 44.04708 47.78759 34929 ft 460 kts 89°
2026-05-04 09:47 44.05210 47.87606 34915 ft 460 kts 89°
2026-05-04 09:49 44.07166 48.23012 34923 ft 459 kts 89°
2026-05-04 09:51 44.08777 48.53962 34906 ft 458 kts 90°
2026-05-04 09:51 44.09227 48.62746 34908 ft 458 kts 90°
2026-05-04 09:52 44.09673 48.71582 34910 ft 458 kts 90°
2026-05-04 09:52 44.10106 48.80435 34903 ft 458 kts 90°
2026-05-04 09:53 44.10553 48.89313 34905 ft 460 kts 87°
2026-05-04 09:53 44.11257 48.93648 34906 ft 466 kts 72°
2026-05-04 09:53 44.12730 48.97656 34902 ft 471 kts 57°
2026-05-04 09:53 44.14941 49.01085 34896 ft 475 kts 40°
2026-05-04 09:54 44.17703 49.03592 34892 ft 477 kts 24°
2026-05-04 09:54 44.20868 49.04849 34890 ft 475 kts
2026-05-04 09:54 44.24166 49.04839 34888 ft 473 kts 351°
2026-05-04 09:54 44.27390 49.03945 34886 ft 471 kts 340°
2026-05-04 09:55 44.30448 49.02380 34888 ft 471 kts 336°
2026-05-04 09:55 44.35551 48.99553 34894 ft 473 kts 335°
2026-05-04 09:56 44.42648 48.95444 34894 ft 476 kts 335°
2026-05-04 09:56 44.47763 48.92430 34898 ft 477 kts 335°
2026-05-04 09:57 44.53882 48.88841 34912 ft 479 kts 335°
2026-05-04 09:57 44.60027 48.85242 34909 ft 480 kts 335°
2026-05-04 09:58 44.66163 48.81637 34907 ft 480 kts 335°
2026-05-04 09:58 44.72314 48.78014 34932 ft 479 kts 335°
2026-05-04 10:00 44.96883 48.63477 34940 ft 478 kts 335°
2026-05-04 10:04 45.39360 48.38017 34948 ft 471 kts 335°
2026-05-04 10:04 45.45397 48.34356 34939 ft 471 kts 335°
2026-05-04 10:05 45.51415 48.30690 34925 ft 471 kts 334°
2026-05-04 10:05 45.57444 48.27029 34953 ft 470 kts 334°
2026-05-04 10:06 45.63450 48.23385 34953 ft 469 kts 334°
2026-05-04 10:06 45.69466 48.19709 34949 ft 469 kts 334°
2026-05-04 10:08 45.90428 48.06828 34931 ft 468 kts 334°
2026-05-04 10:08 45.96401 48.03145 34956 ft 468 kts 333°
2026-05-04 10:09 46.02341 47.99474 34973 ft 466 kts 333°
2026-05-04 10:09 46.07782 47.94601 34965 ft 456 kts 315°
2026-05-04 10:10 46.11875 47.87820 34977 ft 447 kts 299°
2026-05-04 10:10 46.15276 47.80281 34955 ft 448 kts 299°
2026-05-04 10:11 46.18680 47.72742 34948 ft 448 kts 299°
2026-05-04 10:11 46.22081 47.65186 34947 ft 448 kts 299°
2026-05-04 10:12 46.25462 47.57631 34953 ft 448 kts 299°
2026-05-04 10:12 46.28851 47.50067 34955 ft 449 kts 299°
2026-05-04 10:13 46.32240 47.42510 34957 ft 449 kts 299°
2026-05-04 10:13 46.35619 47.34920 34959 ft 449 kts 298°
2026-05-04 10:14 46.38990 47.27308 34973 ft 449 kts 298°
2026-05-04 10:16 46.52459 46.96765 34969 ft 451 kts 298°
2026-05-04 10:16 46.55820 46.89101 34966 ft 451 kts 298°
2026-05-04 10:17 46.59177 46.81430 34971 ft 451 kts 298°
2026-05-04 10:19 46.72565 46.50574 34987 ft 450 kts 298°
2026-05-04 10:19 46.75906 46.42818 34988 ft 450 kts 298°
2026-05-04 10:20 46.79228 46.35066 35005 ft 450 kts 298°
2026-05-04 10:20 46.82539 46.27332 34998 ft 450 kts 298°
2026-05-04 10:21 46.85845 46.19588 35002 ft 450 kts 297°
2026-05-04 10:21 46.89161 46.11798 34997 ft 450 kts 298°
2026-05-04 10:22 46.93153 46.04764 35009 ft 458 kts 316°
2026-05-04 10:22 46.95713 46.01972 35020 ft 461 kts 326°
2026-05-04 10:22 46.98553 45.99792 35255 ft 461 kts 332°
2026-05-04 10:23 47.01450 45.97793 35501 ft 459 kts 331°
2026-05-04 10:23 47.04337 45.95777 35659 ft 459 kts 331°
2026-05-04 10:25 47.24445 45.81606 36018 ft 457 kts 330°
2026-05-04 10:25 47.30190 45.77560 36019 ft 457 kts 330°
2026-05-04 10:26 47.35885 45.73529 36019 ft 457 kts 330°
2026-05-04 10:26 47.41611 45.69466 36021 ft 457 kts 330°
2026-05-04 10:27 47.47342 45.65375 36020 ft 457 kts 330°
2026-05-04 10:27 47.53067 45.61292 36019 ft 457 kts 330°
2026-05-04 10:28 47.58796 45.57205 36045 ft 456 kts 330°
2026-05-04 10:28 47.64512 45.53116 36050 ft 455 kts 330°
2026-05-04 10:29 47.70210 45.49027 36046 ft 454 kts 330°
2026-05-04 10:29 47.75896 45.44927 36047 ft 454 kts 330°
2026-05-04 10:30 47.81209 45.40149 36060 ft 444 kts 315°
2026-05-04 10:30 47.85779 45.34009 36052 ft 442 kts 313°
2026-05-04 10:31 47.90332 45.27859 36052 ft 441 kts 313°
2026-05-04 10:32 48.06714 45.07127 36056 ft 444 kts 322°
2026-05-04 10:33 48.11849 45.01987 36054 ft 444 kts 322°
2026-05-04 10:33 48.16938 44.96870 36079 ft 443 kts 321°
2026-05-04 10:34 48.22051 44.91722 36074 ft 442 kts 321°
2026-05-04 10:34 48.27146 44.86567 36071 ft 440 kts 321°
2026-05-04 10:35 48.32218 44.81418 36067 ft 440 kts 321°
2026-05-04 10:35 48.37290 44.76268 36084 ft 439 kts 321°
2026-05-04 10:36 48.42358 44.71120 36070 ft 439 kts 321°
2026-05-04 10:36 48.47411 44.65959 36072 ft 439 kts 321°
2026-05-04 10:37 48.52464 44.60786 36065 ft 439 kts 321°
2026-05-04 10:37 48.57514 44.55607 36072 ft 439 kts 321°
2026-05-04 10:39 48.75149 44.37389 36067 ft 439 kts 322°
2026-05-04 10:40 48.80513 44.32967 36070 ft 445 kts 336°
2026-05-04 10:40 48.86332 44.29703 36066 ft 446 kts 335°
2026-05-04 10:41 48.92142 44.26412 36061 ft 446 kts 335°
2026-05-04 10:41 48.97947 44.23115 36061 ft 446 kts 335°
2026-05-04 10:42 49.03741 44.19816 36080 ft 445 kts 336°
2026-05-04 10:42 49.08602 44.17042 36080 ft 445 kts 336°
2026-05-04 10:43 49.14410 44.13728 36081 ft 445 kts 336°
2026-05-04 10:45 49.37565 44.00415 36058 ft 445 kts 336°
2026-05-04 10:45 49.43355 43.97066 36061 ft 446 kts 336°
2026-05-04 10:46 49.49168 43.93693 36056 ft 446 kts 336°
2026-05-04 10:46 49.54761 43.89642 36058 ft 442 kts 328°
2026-05-04 10:47 49.60162 43.85108 36059 ft 443 kts 328°
2026-05-04 10:47 49.65560 43.80596 36069 ft 443 kts 328°
2026-05-04 10:49 49.87194 43.62345 36072 ft 443 kts 329°
2026-05-04 10:50 49.92603 43.57758 36079 ft 443 kts 329°
2026-05-04 10:52 50.14181 43.39296 36066 ft 443 kts 329°
2026-05-04 10:52 50.19585 43.34646 36067 ft 444 kts 329°
2026-05-04 10:54 50.41205 43.15912 36067 ft 444 kts 329°
2026-05-04 10:56 50.62824 42.96996 36077 ft 445 kts 330°
2026-05-04 10:57 50.68210 42.92236 36081 ft 444 kts 330°
2026-05-04 10:57 50.73926 42.88613 36079 ft 445 kts 340°
2026-05-04 10:58 50.79758 42.85383 36074 ft 445 kts 339°
2026-05-04 10:58 50.85606 42.82107 36080 ft 444 kts 340°
2026-05-04 10:59 50.91415 42.78853 36075 ft 444 kts 340°
2026-05-04 10:59 50.97218 42.75607 36073 ft 444 kts 339°
2026-05-04 11:00 51.03077 42.72312 36069 ft 444 kts 339°
2026-05-04 11:02 51.26297 42.59165 36060 ft 443 kts 339°
2026-05-04 11:05 51.69699 42.34185 36061 ft 441 kts 339°
2026-05-04 11:06 51.75453 42.30852 36056 ft 441 kts 339°
2026-05-04 11:06 51.81215 42.27494 36061 ft 440 kts 339°
2026-05-04 11:10 52.21554 42.04144 36030 ft 439 kts 341°
2026-05-04 11:12 52.42152 41.95765 36029 ft 440 kts
2026-05-04 11:12 52.45214 41.95960 36023 ft 440 kts
2026-05-04 11:12 52.51343 41.96300 36018 ft 440 kts
2026-05-04 11:13 52.57462 41.96622 36015 ft 440 kts
2026-05-04 11:13 52.63581 41.96953 36019 ft 439 kts
2026-05-04 11:14 52.69571 41.95907 36027 ft 436 kts 342°
2026-05-04 11:16 52.89070 41.72794 35995 ft 433 kts 320°
2026-05-04 11:16 52.93705 41.66508 35995 ft 433 kts 320°
2026-05-04 11:17 52.98375 41.60157 35996 ft 433 kts 320°
2026-05-04 11:19 53.16980 41.34683 35990 ft 432 kts 320°
2026-05-04 11:19 53.21659 41.28524 35980 ft 432 kts 328°
2026-05-04 11:20 53.27147 41.24536 35981 ft 432 kts 342°
2026-05-04 11:20 53.32909 41.21630 35974 ft 432 kts 342°
2026-05-04 11:22 53.55871 41.09814 35968 ft 432 kts 342°
2026-05-04 11:23 53.61621 41.06845 35965 ft 432 kts 342°
2026-05-04 11:24 53.74291 40.87426 35941 ft 429 kts 294°
2026-05-04 11:25 53.75480 40.82822 35946 ft 429 kts 294°
2026-05-04 11:25 53.77870 40.73559 35947 ft 430 kts 294°
2026-05-04 11:27 53.88515 40.31752 35954 ft 430 kts 294°
2026-05-04 11:28 53.90874 40.22416 35953 ft 430 kts 294°
2026-05-04 11:28 53.93221 40.13099 35951 ft 430 kts 294°
2026-05-04 11:29 53.95576 40.03720 35945 ft 430 kts 294°
2026-05-04 11:29 53.97905 39.94404 35947 ft 430 kts 294°
2026-05-04 11:33 54.13642 39.30287 35941 ft 429 kts 294°
2026-05-04 11:33 54.15898 39.20915 35941 ft 429 kts 294°
2026-05-04 11:34 54.18171 39.11446 35941 ft 429 kts 293°
2026-05-04 11:34 54.20419 39.02039 35926 ft 430 kts 293°
2026-05-04 11:35 54.22821 38.92671 35921 ft 428 kts 302°
2026-05-04 11:35 54.26537 38.84839 35923 ft 426 kts 318°
2026-05-04 11:36 54.30945 38.78008 35941 ft 427 kts 318°
2026-05-04 11:36 54.35296 38.71184 35941 ft 426 kts 317°
2026-05-04 11:37 54.39689 38.64272 35935 ft 426 kts 317°
2026-05-04 11:37 54.44067 38.57394 35938 ft 426 kts 318°
2026-05-04 11:38 54.48416 38.50557 35945 ft 426 kts 318°
2026-05-04 11:38 54.52769 38.43678 35945 ft 425 kts 317°
2026-05-04 11:39 54.57125 38.36758 35938 ft 425 kts 317°
2026-05-04 11:41 54.72297 38.12495 35940 ft 424 kts 317°
2026-05-04 11:41 54.76604 38.05562 35940 ft 424 kts 317°
2026-05-04 11:42 54.80912 37.98603 35936 ft 424 kts 317°
2026-05-04 11:42 54.85227 37.91603 35939 ft 423 kts 317°
2026-05-04 11:43 54.89514 37.84621 35941 ft 423 kts 317°
2026-05-04 11:43 54.93790 37.77653 35940 ft 422 kts 317°
2026-05-04 11:44 54.98063 37.70668 35932 ft 422 kts 317°
2026-05-04 11:44 55.02323 37.63682 35930 ft 422 kts 317°
2026-05-04 11:45 55.06607 37.56634 35929 ft 422 kts 317°
2026-05-04 11:45 55.10855 37.49614 35943 ft 421 kts 317°
2026-05-04 11:46 55.15109 37.42583 35938 ft 421 kts 317°
2026-05-04 11:46 55.19371 37.35506 35934 ft 421 kts 317°
2026-05-04 11:47 55.23596 37.28467 35928 ft 421 kts 317°
2026-05-04 11:47 55.27827 37.21407 35918 ft 421 kts 316°
2026-05-04 11:48 55.32072 37.14300 35913 ft 421 kts 316°
2026-05-04 11:48 55.36280 37.07231 35912 ft 421 kts 316°
2026-05-04 11:49 55.40512 37.00102 35906 ft 421 kts 316°
2026-05-04 11:49 55.44733 36.92968 35909 ft 421 kts 316°
2026-05-04 11:50 55.48977 36.85773 35913 ft 421 kts 316°
2026-05-04 11:50 55.53233 36.78712 35910 ft 421 kts 322°
2026-05-04 11:51 55.57942 36.72670 35907 ft 421 kts 323°
2026-05-04 11:51 55.62703 36.66566 35907 ft 420 kts 323°
2026-05-04 11:52 55.67424 36.60480 35905 ft 420 kts 323°
2026-05-04 11:52 55.72135 36.54404 35900 ft 421 kts 323°
2026-05-04 11:53 55.76867 36.48277 35893 ft 421 kts 323°
2026-05-04 11:53 55.81604 36.42127 35911 ft 421 kts 323°
2026-05-04 11:55 56.00428 36.17480 35895 ft 419 kts 322°
2026-05-04 11:56 56.05106 36.11306 35890 ft 419 kts 322°
2026-05-04 11:56 56.09781 36.05111 35889 ft 419 kts 322°
2026-05-04 11:57 56.14465 35.98934 35882 ft 419 kts 322°
2026-05-04 11:57 56.19175 35.92727 35881 ft 419 kts 322°
2026-05-04 11:58 56.23855 35.86531 35876 ft 419 kts 322°
2026-05-04 11:58 56.28556 35.80273 35874 ft 419 kts 322°
2026-05-04 11:59 56.33222 35.74016 35871 ft 419 kts 322°
2026-05-04 11:59 56.37872 35.67756 35871 ft 419 kts 322°
2026-05-04 12:00 56.42545 35.61486 35874 ft 419 kts 322°
2026-05-04 12:00 56.47230 35.55204 35876 ft 418 kts 322°
2026-05-04 12:01 56.51906 35.48903 35870 ft 418 kts 322°
2026-05-04 12:02 56.68134 35.26664 35860 ft 418 kts 321°
2026-05-04 12:03 56.72756 35.20249 35858 ft 418 kts 321°
2026-05-04 12:03 56.76611 35.14882 35857 ft 418 kts 321°
2026-05-04 12:04 56.81985 35.07382 35853 ft 419 kts 321°
2026-05-04 12:04 56.86607 35.00917 35853 ft 419 kts 321°
2026-05-04 12:05 56.91252 34.94399 35854 ft 419 kts 321°
2026-05-04 12:05 56.96041 34.88356 35859 ft 420 kts 325°
2026-05-04 12:06 57.00994 34.82655 35863 ft 420 kts 326°
2026-05-04 12:06 57.05919 34.76926 35851 ft 420 kts 325°
2026-05-04 12:07 57.10803 34.71077 35847 ft 420 kts 324°
2026-05-04 12:07 57.15672 34.65165 35843 ft 419 kts 324°
2026-05-04 12:08 57.20555 34.59213 35847 ft 420 kts 324°
2026-05-04 12:08 57.25417 34.53291 35841 ft 420 kts 324°
2026-05-04 12:09 57.30301 34.47363 35835 ft 419 kts 324°
2026-05-04 12:09 57.35166 34.41410 35828 ft 419 kts 323°
2026-05-04 12:10 57.40002 34.35483 35822 ft 419 kts 324°
2026-05-04 12:10 57.44873 34.29496 35822 ft 419 kts 323°
2026-05-04 12:11 57.49741 34.23494 35819 ft 419 kts 323°
2026-05-04 12:11 57.54576 34.17491 35828 ft 419 kts 323°
2026-05-04 12:12 57.59414 34.11473 35825 ft 419 kts 323°
2026-05-04 12:12 57.64266 34.05432 35821 ft 418 kts 323°
2026-05-04 12:14 57.83591 33.81126 35800 ft 419 kts 322°
2026-05-04 12:15 57.88422 33.74894 35797 ft 419 kts 320°
2026-05-04 12:15 57.92982 33.68131 35795 ft 417 kts 317°
2026-05-04 12:16 57.97415 33.61146 35797 ft 417 kts 316°
2026-05-04 12:16 58.01895 33.54178 35787 ft 418 kts 317°
2026-05-04 12:17 58.06400 33.47289 35814 ft 418 kts 317°
2026-05-04 12:17 58.10950 33.40330 35812 ft 418 kts 317°
2026-05-04 12:18 58.15434 33.33427 35801 ft 418 kts 317°
2026-05-04 12:18 58.19942 33.26458 35798 ft 418 kts 317°
2026-05-04 12:19 58.24447 33.19472 35803 ft 418 kts 317°
2026-05-04 12:19 58.28950 33.12477 35792 ft 418 kts 316°
2026-05-04 12:20 58.33445 33.05463 35793 ft 418 kts 316°
2026-05-04 12:20 58.37914 32.98466 35782 ft 418 kts 316°
2026-05-04 12:21 58.42405 32.91413 35781 ft 418 kts 316°
2026-05-04 12:21 58.46901 32.84331 35791 ft 418 kts 316°
2026-05-04 12:22 58.51382 32.77229 35789 ft 418 kts 316°
2026-05-04 12:22 58.55873 32.70108 35777 ft 419 kts 316°
2026-05-04 12:23 58.59597 32.64187 35785 ft 419 kts 316°